Location: San Antonio
(29.4240°N, 98.4930°W)
Time: 01:06:20
(UTC-05:00)

ISS - Pass Details

Date: 25 June 2024
Orbit: 410 x 424 km, 51.6° (Epoch: 12 July)

Event Time Altitude Azimuth Distance (km) Brightness Sun altitude
Exits shadow 04:30:23 16° 328° (NNW) 1,180 -1.3 -22.7°
Drops below altitude 10° 04:32:17 10° 3° (N) 1,485 -0.3 -22.4°
Sets 04:34:59 0° 26° (NNE) 2,354 1.3 -22.0°
